Regional Weather Roundup
Issued by NWS

Home | Current Version | Previous Version | Text Only | Print | Product List | Glossary Off
Versions: 1 2 3 4 5 6 7 8 9 10 11 12 13 14 15 16 17 18 19 20 21 22 23 24 25 26 27 28 29 30 31 32 33 34 35 36 37 38 39 40 41 42 43 44 45 46 47 48 49 50

000
ASUS43 KMPX 282110
RWRMN
WEATHER ROUNDUP FOR MINNESOTA
NATIONAL WEATHER SERVICE TWIN CITIES/CHANHASSEN MN
400 PM CDT THU JUL 28 2016


NOTE: "FAIR" INDICATES FEW OR NO CLOUDS BELOW 12,000 FEET WITH NO
SIGNIFICANT WEATHER AND/OR OBSTRUCTIONS TO VISIBILITY. N/A MEANS
CURRENT SKY AND/OR WEATHER CONDITIONS ARE NOT AVAILABLE.

MNZ060>063-068>070-282200-
   Twin Cities Metro

CITY           SKY/WX    TMP DP  RH WIND       PRES   REMARKS
TWIN CITIES    CLOUDY    74  59  59 NE9G20    30.02S
ST PAUL        CLOUDY    73  59  61 N13       30.02S
CRYSTAL        CLOUDY    77  57  50 N10G21    30.01S
BLAINE         PTSUNNY   75  61  60 N14       30.03R
LAKEVILLE      CLOUDY    70  63  78 NE12      30.01F
EDEN PRAIRIE   CLOUDY    76  59  55 NE8       30.00F
LAKEVILLE      CLOUDY    70  63  78 NE12      30.01F
SOUTH ST PAUL  CLOUDY    73  59  61 N8        30.01S
LAKE ELMO      CLOUDY    73  63  68 N7        30.03S
$$
MNZ001>005-007-008-013>017-022>024-027-028-282200-
   Northwest Minnesota

CITY           SKY/WX    TMP DP  RH WIND       PRES   REMARKS
BEMIDJI        MOSUNNY   73  55  53 VRB6      30.09F
HALLOCK        SUNNY     73  54  49 N7        30.11F
ROSEAU         SUNNY     73  59  60 E7        30.11F
WARROAD        SUNNY     72  57  60 E6        30.12F
THIEF RVR FALL MOSUNNY   74  56  53 NW10      30.12S
CROOKSTON      MOSUNNY   75  57  53 N8        30.11S
FOSSTON        MOSUNNY   77  59  53 N6        30.10F
DETROIT LAKES  MOSUNNY   73  59  60 NW5       30.09S
MOORHEAD       MOSUNNY   79  61  53 N9        30.07F
PARK RAPIDS    MOSUNNY   80  52  37 NE8       30.07F
MAHNOMEN       FAIR      78  58  48 N10       30.08F
$$
MNZ006-009>011-018-025>026-282200-
   North Central Minnesota

CITY           SKY/WX    TMP DP  RH WIND       PRES   REMARKS
BAUDETTE       SUNNY     75  57  53 N10       30.10F
FLAG ISLAND    SUNNY     70  52  52 N5        30.11F
INTL FALLS     SUNNY     76  53  44 MISG      30.09S
WASKISH        SUNNY     77  57  50 W6        30.09S
BIG FORK       MOSUNNY   77  52  41 CALM      30.08S
LONGVILLE      SUNNY     77  55  47 CALM      30.08S
GRAND RAPIDS   MOSUNNY   75  56  51 NW5       30.09F
CRANE LAKE     MOSUNNY   73  52  46 N3        30.10S
ORR            SUNNY     70  57  64 CALM      30.06S
COOK           MOSUNNY   75  54  46 CALM      30.09S
WALKER         FAIR      76  59  55 E3        30.08S
$$
MNZ012-019>021-037-282200-
   Northeast Minnesota

CITY           SKY/WX    TMP DP  RH WIND       PRES   REMARKS
DULUTH         CLOUDY    70  51  51 E18       30.09F
ELY            SUNNY     75  48  38 NE7       30.08F
HIBBING        MOSUNNY   74  54  49 N6        30.07F
EVELETH        MOSUNNY   75  50  40 E5        30.09F
DULUTH HARBOR  MOSUNNY   66  61  82 NE16      30.09S
TWO HARBORS    CLOUDY    73  57  56 E12       30.08S
SILVER BAY     CLOUDY    70  54  56 E7        30.09S
GRAND MARAIS     N/A     66  55  67 E6        30.09F
$$
MNZ029>031-032-039>041-046>048-054>057-064-282200-
   West Central Minnesota

CITY           SKY/WX    TMP DP  RH WIND       PRES   REMARKS
FERGUS FALLS   CLOUDY    77  59  53 CALM      30.07F
WHEATON        PTSUNNY   79  63  57 CALM      30.09S
MORRIS         PTSUNNY   77  55  47 NE5       30.06F
ALEXANDRIA     PTSUNNY   76  56  49 E9        30.08F
ELBOW LAKE     FAIR      77  59  53 SE5       30.07F
WADENA         MOSUNNY   73  57  56 NE6       30.07F
GLENWOOD       MOSUNNY   75  59  57 E9        30.08F
APPLETON       MOSUNNY   79  55  44 N7        30.06S
BENSON         MOSUNNY   77  52  41 NE12G18   30.06S
ORTONVILLE     MOSUNNY   77  55  47 NE8       30.07S
MADISON        MOSUNNY   77  55  47 NE8       30.06F
WILLMAR        FAIR      75  57  53 NE14G22   30.06F
$$
MNZ033>034-036-042>043-049>051-058-059-282200-
   Central Minnesota

CITY           SKY/WX    TMP DP  RH WIND       PRES   REMARKS
ST CLOUD       CLOUDY    75  58  55 NE12      30.05F
SAUK CENTRE    FAIR      74  56  52 NE7G16    30.07F
PAYNESVILLE    PTSUNNY   74  53  46 NE9G17    30.06F
AITKIN         MOSUNNY   79  54  41 SE5       30.06S
PINE RIVER     CLOUDY    75  57  53 N5        30.10F
BRAINERD       CLOUDY    74  56  53 SE6       30.08S
STAPLES        CLOUDY    77  57  50 NE6       30.07F
LONG PRAIRIE   FAIR      72  55  56 N6        30.08F
LITTLE FALLS   CLOUDY    72  54  53 NE3       30.07S
LITCHFIELD     PTSUNNY   73  61  64 NE9       30.05F
BUFFALO        PTSUNNY   75  56  53 NE10G17   30.04F
MAPLE LAKE     PTSUNNY   75  60  58 N9        30.05F
HUTCHINSON     SUNNY     77  61  57 N12       30.04S
$$
MNZ037-044-045-052-053-282200-
   East Central Minnesota

CITY           SKY/WX    TMP DP  RH WIND       PRES   REMARKS
PRINCETON      PTSUNNY   77  57  50 N12       30.05S
MORA           PTSUNNY   70  54  56 NE7       30.07S
CAMBRIDGE      MOSUNNY   75  59  57 N5        30.03S
RUSH CITY      CLOUDY    73  59  62 N7        30.04S
MOOSE LAKE     CLOUDY    70  52  52 NE8       30.06S
HINCKLEY       FAIR      72  55  56 NE9       30.06S
CLOQUET        CLOUDY    70  50  49 E10G16    30.08F
MCGREGOR       MOSUNNY   73  55  53 SE6       30.07F
$$
MNZ071>073-080-081-089-090-097-098-282200-
   Southwest Minnesota

CITY           SKY/WX    TMP DP  RH WIND       PRES   REMARKS
MONTEVIDEO     SUNNY     79  57  47 E9        30.08R
GRANITE FALLS  MOSUNNY   79  58  48 N13       30.06S
CANBY          MOSUNNY   77  58  52 NE7       30.07S
REDWOOD FALLS  CLOUDY    78  57  48 MISG      30.03F
OLIVIA         CLOUDY    77  59  53 NE7       30.03F
PIPESTONE      SUNNY     75  59  57 NE9       30.07S
WINDOM         MOSUNNY   73  61  64 N6        30.04S
WORTHINGTON    MOSUNNY   74  62  66 N10       30.05S
JACKSON        CLOUDY    72  61  68 VRB7      30.04S
TRACY          MOSUNNY   75  63  64 N9        30.05S
SLAYTON        MOSUNNY   74  62  66 N7        30.07R
$$
MNZ065>067-074>077-082>085-091>093-282200-
   South Central Minnesota

CITY           SKY/WX    TMP DP  RH WIND       PRES   REMARKS
MANKATO        PTSUNNY   72  61  68 N13       30.02S
NEW ULM        CLOUDY    73  61  64 N14       30.01F
ST JAMES       PTSUNNY   70  61  73 N9        30.03S
FAIRMONT       CLOUDY    73  63  68 N6        30.01S
GLENCOE        CLOUDY    74  65  71 N9        30.02F
FARIBAULT      CLOUDY    70  64  83 N8        30.01F
OWATONNA       PTSUNNY   70  64  83 N9        30.01S
WASECA         CLOUDY    72  64  78 N10       30.02S
ALBERT LEA     CLOUDY    70  66  88 N7        30.00S
$$
MNZ078>079-086>088-094>096-282200-
   Southeast Minnesota

CITY           SKY/WX    TMP DP  RH WIND       PRES   REMARKS
ROCHESTER      CLOUDY    69  65  86 NE15      30.00S
RED WING       CLOUDY    73  63  68 NE8       29.99F
STANTON        CLOUDY    73  63  68 NE7       30.00S
DODGE CENTER   CLOUDY   N/A N/A N/A NE13      30.00S
WINONA         CLOUDY    70  61  73 NE7       29.98R
AUSTIN         LGT RAIN  70  64  83 N12G18    29.98F
PRESTON        CLOUDY    66  61  85 NE13      29.99S
$$
ABBREVIATIONS USED IN REMARKS
   TC - TEMPERATURES IN CELSIUS
  WCI - WIND CHILL INDEX
   HX - HEAT INDEX
  VSB - VISIBILITY
$$



USA.gov is the U.S. government's official web portal to all federal, state and local government web resources and services.